period_start,C,m1,H,J0,J1,J2,J3,J4,J5,JA,JB,JC,JD,JJ,JK,JN,#
2014-05-18 00:02:01,0.02,0.09,0.00,18.69,22.67,25.70,9.69,41.10,1009.78,2058.91,3518.38,3330.97,3613.40,500.20,500.85,4.01,0000 0000 0000 0000 000000
2014-05-18 00:07:03,0.03,0.09,0.00,18.71,22.68,25.80,9.73,40.72,1009.78,2058.89,3517.87,3330.53,3613.01,500.21,500.81,4.05,0000 0000 0000 0000 000000
2014-05-18 00:12:04,0.02,0.09,0.00,18.74,22.69,25.78,9.70,40.68,1009.78,2058.91,3517.05,3330.04,3612.83,499.90,500.48,4.09,0000 0000 0000 0000 000000
2014-05-18 00:17:05,0.01,0.09,0.00,18.73,22.70,25.77,9.69,40.76,1009.79,2058.92,3516.90,3330.00,3612.10,500.18,500.84,4.13,0000 0000 0000 0000 000000
2014-05-18 00:22:06,-0.02,0.09,0.00,18.74,22.72,25.83,9.69,41.02,1009.78,2058.64,3516.14,3329.95,3611.86,499.62,500.14,4.17,0000 0000 0000 0000 000000
2014-05-18 00:27:07,0.03,0.09,0.00,18.73,22.72,25.84,9.69,40.83,1009.78,2058.46,3515.91,3329.36,3611.12,500.10,500.67,4.21,0000 0000 0000 0000 000000
2014-05-18 00:32:08,-0.01,0.09,0.00,18.73,22.73,25.85,9.62,40.84,1009.77,2058.27,3515.09,3329.04,3610.99,499.90,500.46,4.26,0000 0000 0000 0000 000000
2014-05-18 00:37:09,0.00,0.09,0.00,18.74,22.74,25.84,9.62,40.78,1009.72,2058.12,3514.81,3328.99,3610.44,499.85,500.46,4.30,0000 0000 0000 0000 000000
2014-05-18 00:42:10,0.01,0.10,0.00,18.72,22.75,25.79,9.75,40.98,1009.67,2058.04,3514.08,3328.94,3610.00,500.06,500.66,4.34,0000 0000 0000 0000 000000
2014-05-18 00:47:11,0.03,0.10,0.00,18.71,22.76,25.83,9.68,41.05,1009.68,2058.03,3513.82,3328.34,3609.75,500.36,500.76,4.38,0000 0000 0000 0000 000000
2014-05-18 00:52:12,0.03,0.10,0.00,18.70,22.77,25.78,9.66,40.96,1009.74,2058.02,3513.05,3328.02,3609.07,499.74,500.26,4.42,0000 0000 0000 0000 000000
2014-05-18 00:57:14,0.01,0.10,0.00,18.67,22.77,25.79,9.73,40.98,1009.65,2058.01,3512.29,3328.00,3608.96,500.32,500.89,4.47,0000 0000 0000 0000 000000
2014-05-18 01:02:15,0.01,0.10,0.00,18.72,22.78,25.72,9.64,41.02,1009.49,2058.01,3511.99,3327.90,3608.23,499.80,500.44,4.51,0000 0000 0000 0000 000000
2014-05-18 01:07:16,0.03,0.10,0.00,18.72,22.79,25.75,9.71,40.86,1009.36,2058.00,3511.28,3327.28,3607.98,500.34,500.76,4.55,0000 0000 0000 0000 000000
2014-05-18 01:12:17,0.01,0.10,0.00,18.73,22.79,25.83,9.70,40.88,1009.50,2058.00,3510.98,3327.04,3607.70,500.14,500.67,4.59,0000 0000 0000 0000 000000
2014-05-18 01:17:18,0.02,0.10,0.00,18.74,22.80,25.81,9.71,40.91,1009.72,2058.00,3510.39,3327.00,3607.03,499.96,500.40,4.63,0000 0000 0000 0000 000000
2014-05-18 01:22:19,0.00,0.10,0.00,18.78,22.81,25.89,9.74,40.91,1009.76,2058.00,3510.00,3326.98,3606.94,500.08,500.60,4.67,0000 0000 0000 0000 000000
2014-05-18 01:27:20,0.04,0.10,0.00,18.79,22.82,25.87,9.67,41.10,1009.78,2058.00,3509.44,3326.58,3606.23,500.13,500.48,4.72,0000 0000 0000 0000 000000
2014-05-18 01:32:21,0.01,0.11,0.00,18.81,22.82,25.85,9.73,41.02,1009.78,2058.00,3509.01,3326.08,3606.01,499.92,500.32,4.76,0000 0000 0000 0000 000000
2014-05-18 01:37:22,0.01,0.11,0.00,18.80,22.83,25.91,9.64,40.90,1009.78,2058.00,3508.47,3326.03,3605.98,499.76,500.38,4.80,0000 0000 0000 0000 000000
2014-05-18 01:42:24,0.01,0.11,0.00,18.83,22.84,25.87,9.73,40.79,1009.82,2058.00,3508.03,3326.00,3605.36,500.49,500.84,4.84,0000 0000 0000 0000 000000
2014-05-18 01:47:25,0.01,0.11,0.00,18.81,22.84,25.94,9.71,41.03,1009.90,2058.00,3507.59,3325.89,3605.01,500.13,500.55,4.88,0000 0000 0000 0000 000000
2014-05-18 01:52:26,0.03,0.11,0.00,18.83,22.86,25.90,9.68,40.75,1009.91,2058.00,3507.02,3325.29,3604.71,499.94,500.47,4.93,0000 0000 0000 0000 000000
2014-05-18 01:57:27,0.08,0.11,0.00,18.79,22.87,25.97,9.63,41.07,1009.85,2058.00,3506.27,3324.31,3603.19,499.72,500.07,4.97,0000 0000 0000 0000 000000
2014-05-18 02:02:28,0.16,0.12,0.00,18.74,22.87,25.92,9.66,40.84,1009.92,2057.99,3503.92,3321.41,3600.13,499.74,500.36,5.01,0000 0000 0000 0000 000000
2014-05-18 02:07:30,0.02,0.12,0.00,18.68,22.87,25.80,9.69,41.08,1010.04,2057.99,3503.07,3321.01,3599.94,499.97,500.88,5.05,0000 0000 0000 0000 000000
2014-05-18 02:12:31,0.01,0.12,0.00,18.73,22.87,25.88,9.67,41.13,1010.05,2057.98,3502.97,3321.00,3599.25,500.27,500.98,5.09,0000 0000 0000 0000 000000
2014-05-18 02:17:32,0.02,0.12,0.00,18.76,22.88,25.91,9.69,41.23,1010.00,2057.98,3502.18,3320.98,3599.00,500.27,500.80,5.13,0000 0000 0000 0000 000000
2014-05-18 02:22:33,0.02,0.12,0.00,18.74,22.89,25.81,9.68,41.23,1009.98,2057.98,3501.99,3320.74,3598.79,500.13,500.79,5.18,0000 0000 0000 0000 000000
2014-05-18 02:27:34,0.03,0.12,0.00,18.79,22.89,25.89,9.67,41.13,1009.94,2057.96,3501.40,3320.12,3598.07,500.03,500.64,5.22,0000 0000 0000 0000 000000
2014-05-18 02:32:35,0.00,0.12,0.00,18.87,22.89,26.01,9.66,41.34,1009.87,2057.97,3501.01,3320.01,3598.00,499.82,500.20,5.26,0000 0000 0000 0000 000000
2014-05-18 02:37:36,0.00,0.12,0.00,18.87,22.89,26.04,9.59,41.38,1009.90,2057.97,3500.84,3320.00,3597.95,499.47,500.08,5.30,0000 0000 0000 0000 000000
2014-05-18 02:42:37,0.02,0.13,0.00,18.95,22.90,26.12,9.67,41.32,1010.02,2057.98,3500.19,3319.99,3597.39,500.39,500.75,5.34,0000 0000 0000 0000 000000
2014-05-18 02:47:38,0.01,0.13,0.00,18.97,22.90,26.03,9.71,41.21,1010.05,2057.98,3499.93,3319.91,3597.01,500.11,500.31,5.39,0000 0000 0000 0000 000000
2014-05-18 02:52:39,0.04,0.13,0.00,19.03,22.92,26.03,9.63,41.31,1010.09,2057.99,3499.13,3319.30,3596.93,499.95,500.08,5.43,0000 0000 0000 0000 000000
2014-05-18 02:57:40,0.02,0.13,0.00,19.07,22.92,25.99,9.67,41.29,1010.12,2057.99,3498.78,3319.00,3596.25,500.05,500.25,5.47,0000 0000 0000 0000 000000
2014-05-18 03:02:41,0.07,0.13,0.00,19.11,22.92,25.98,9.65,41.43,1010.26,2057.97,3497.40,3318.13,3595.20,499.76,499.93,5.51,0000 0000 0000 0000 000000
2014-05-18 03:07:42,0.07,0.14,0.00,19.09,22.92,26.02,9.71,41.31,1010.27,2057.98,3496.10,3317.02,3593.69,499.74,499.92,5.55,0000 0000 0000 0000 000000
2014-05-18 03:12:44,0.03,0.14,0.00,19.06,22.94,26.10,9.63,41.28,1010.28,2057.98,3495.91,3316.26,3593.02,500.00,500.29,5.59,0000 0000 0000 0000 000000
2014-05-18 03:17:45,0.01,0.14,0.00,19.06,22.94,26.15,9.62,41.49,1010.30,2057.97,3495.17,3316.01,3592.89,499.78,500.23,5.64,0000 0000 0000 0000 000000
2014-05-18 03:22:46,0.01,0.14,0.00,19.11,22.94,26.21,9.68,41.34,1010.36,2057.95,3495.01,3316.00,3592.10,499.87,500.04,5.68,0000 0000 0000 0000 000000
2014-05-18 03:27:47,0.01,0.14,0.00,19.13,22.96,26.22,9.69,41.13,1010.70,2057.90,3494.56,3315.94,3591.99,499.78,500.10,5.72,0000 0000 0000 0000 000000
2014-05-18 03:32:49,0.06,0.14,0.00,19.18,22.97,26.25,9.73,41.10,1010.76,2057.96,3493.68,3315.11,3591.07,499.92,500.28,5.76,0000 0000 0000 0000 000000
2014-05-18 03:37:50,0.01,0.14,0.00,19.23,22.98,26.30,9.68,41.26,1010.76,2057.68,3493.11,3314.50,3590.08,499.87,500.18,5.80,0000 0000 0000 0000 000000
2014-05-18 03:42:51,-0.02,0.14,0.00,19.20,23.00,26.35,9.74,41.39,1010.76,2057.26,3492.84,3314.02,3589.71,500.59,500.85,5.85,0000 0000 0000 0000 000000
2014-05-18 03:47:52,0.07,0.14,0.00,19.19,23.02,26.35,9.70,41.27,1010.78,2057.26,3491.82,3313.54,3588.92,499.73,499.91,5.89,0000 0000 0000 0000 000000
2014-05-18 03:52:54,0.02,0.14,0.00,19.19,23.03,26.24,9.69,41.17,1010.76,2057.24,3491.02,3312.98,3588.05,500.17,500.51,5.93,0000 0000 0000 0000 000000
2014-05-18 03:57:55,0.04,0.15,0.00,19.15,23.04,26.29,9.78,41.46,1010.83,2057.15,3490.64,3312.34,3587.48,500.22,500.59,5.97,0000 0000 0000 0000 000000
2014-05-18 04:02:56,0.00,0.15,0.00,19.15,23.07,26.27,9.62,41.11,1011.10,2057.03,3489.97,3312.00,3586.98,499.84,500.33,6.01,0000 0000 0000 0000 000000
2014-05-18 04:07:57,0.04,0.15,0.00,19.14,23.08,26.25,9.70,41.52,1011.10,2057.02,3489.22,3311.75,3586.25,499.65,500.24,6.05,0000 0000 0000 0000 000000
2014-05-18 04:12:58,0.02,0.15,0.00,19.11,23.09,26.17,9.72,41.40,1011.16,2057.00,3488.88,3311.04,3585.81,499.85,500.49,6.10,0000 0000 0000 0000 000000
2014-05-18 04:17:59,0.02,0.15,0.00,19.09,23.10,26.12,9.65,41.42,1011.25,2057.00,3488.20,3310.96,3585.07,499.68,500.50,6.14,0000 0000 0000 0000 000000
2014-05-18 04:23:00,0.03,0.15,0.00,19.12,23.11,26.15,9.74,41.50,1011.44,2057.00,3487.94,3310.23,3584.73,500.47,501.15,6.18,0000 0000 0000 0000 000000
2014-05-18 04:28:01,0.02,0.15,0.00,19.07,23.12,26.07,9.75,41.54,1011.73,2057.00,3487.17,3310.00,3584.04,499.92,500.84,6.22,0000 0000 0000 0000 000000
2014-05-18 04:33:02,0.01,0.15,0.00,19.11,23.12,26.08,9.68,41.39,1011.74,2057.00,3486.79,3309.88,3583.96,499.76,500.62,6.26,0000 0000 0000 0000 000000
2014-05-18 04:38:04,0.04,0.16,0.00,19.12,23.12,26.10,9.69,41.42,1011.89,2056.99,3486.06,3309.17,3583.19,500.35,501.31,6.31,0000 0000 0000 0000 000000
2014-05-18 04:43:05,0.00,0.16,0.00,19.16,23.13,26.07,9.71,41.42,1012.22,2056.98,3485.81,3309.00,3583.00,500.27,501.31,6.35,0000 0000 0000 0000 000000
2014-05-18 04:48:07,0.03,0.16,0.00,19.15,23.14,26.07,9.75,41.49,1012.22,2056.99,3485.11,3308.89,3582.55,499.80,501.03,6.39,0000 0000 0000 0000 000000
2014-05-18 04:53:07,0.02,0.16,0.00,19.18,23.14,26.06,9.69,41.34,1012.26,2056.97,3484.85,3308.24,3582.02,499.97,501.03,6.43,0000 0000 0000 0000 000000
2014-05-18 04:58:09,0.01,0.16,0.00,19.26,23.14,26.15,9.65,41.42,1012.41,2056.95,3484.12,3308.01,3581.88,499.82,500.87,6.47,0000 0000 0000 0000 000000
2014-05-18 05:03:10,0.02,0.16,0.00,19.31,23.15,26.18,9.71,41.47,1012.56,2056.94,3483.73,3307.96,3581.11,500.09,501.06,6.51,0000 0000 0000 0000 000000
2014-05-18 05:08:11,0.03,0.16,0.00,19.31,23.16,26.26,9.65,41.44,1012.61,2056.95,3483.01,3307.34,3580.96,499.84,500.77,6.56,0000 0000 0000 0000 000000
2014-05-18 05:13:13,0.01,0.16,0.00,19.29,23.17,26.24,9.67,41.52,1012.33,2056.85,3482.45,3307.00,3580.17,500.17,501.02,6.60,0000 0000 0000 0000 000000
2014-05-18 05:18:14,0.06,0.16,0.00,19.22,23.18,26.10,9.72,41.67,1012.30,2056.87,3481.60,3306.43,3579.62,500.12,501.01,6.64,0000 0000 0000 0000 000000
2014-05-18 05:23:15,0.07,0.17,0.00,19.24,23.19,26.05,9.70,41.64,1012.65,2056.86,3480.13,3305.15,3578.25,500.12,501.19,6.68,0000 0000 0000 0000 000000
2014-05-18 05:28:16,0.01,0.17,0.00,19.29,23.20,25.99,9.60,41.44,1012.68,2056.69,3479.79,3304.86,3577.70,499.80,501.03,6.72,0000 0000 0000 0000 000000
2014-05-18 05:33:17,0.03,0.17,0.00,19.35,23.22,26.03,9.69,41.09,1012.66,2056.60,3478.99,3304.12,3576.93,500.11,500.91,6.77,0000 0000 0000 0000 000000
2014-05-18 05:38:19,0.07,0.17,0.00,19.41,23.23,26.07,9.73,41.39,1012.71,2056.49,3477.81,3303.50,3575.98,500.09,501.02,6.81,0000 0000 0000 0000 000000
2014-05-18 05:43:20,-0.00,0.17,0.00,19.49,23.25,26.17,9.75,41.33,1012.71,2056.36,3477.05,3302.85,3575.07,500.29,500.87,6.85,0000 0000 0000 0000 000000
2014-05-18 05:48:21,0.03,0.17,0.00,19.54,23.27,26.10,9.58,41.33,1012.70,2056.05,3476.55,3302.06,3574.19,499.72,500.28,6.89,0000 0000 0000 0000 000000
2014-05-18 05:53:22,0.03,0.17,0.00,19.61,23.29,26.21,9.62,41.27,1012.71,2056.01,3475.83,3301.59,3573.33,500.32,500.85,6.93,0000 0000 0000 0000 000000
2014-05-18 05:58:24,0.03,0.18,0.00,19.72,23.32,26.37,9.71,41.13,1012.72,2056.01,3475.05,3301.01,3572.82,499.97,500.26,6.97,0000 0000 0000 0000 000000
2014-05-18 06:03:25,0.05,0.18,0.00,19.89,23.35,26.48,9.58,41.38,1012.85,2056.00,3474.44,3300.43,3572.01,499.78,499.80,7.02,0000 0000 0000 0000 000000
2014-05-18 06:08:26,0.03,0.18,0.00,20.10,23.38,26.55,9.67,41.42,1013.05,2055.97,3473.67,3299.86,3571.12,499.83,499.68,7.06,0000 0000 0000 0000 000000
2014-05-18 06:13:27,0.04,0.18,0.00,20.29,23.43,26.63,9.61,41.30,1013.20,2055.94,3472.80,3299.06,3570.39,500.01,499.54,7.10,0000 0000 0000 0000 000000
2014-05-18 06:18:28,0.01,0.18,0.00,20.47,23.48,26.63,9.67,41.15,1013.40,2055.57,3472.03,3298.40,3569.59,500.16,499.56,7.14,0000 0000 0000 0000 000000
2014-05-18 06:23:29,-0.02,0.18,0.00,20.60,23.53,26.60,9.61,41.27,1013.59,2055.09,3471.45,3297.90,3568.77,499.89,499.34,7.18,0000 0000 0000 0000 000000
2014-05-18 06:28:31,0.04,0.18,0.00,20.71,23.58,26.65,9.54,41.31,1013.68,2055.00,3470.74,3297.08,3568.02,499.96,499.04,7.23,0000 0000 0000 0000 000000
2014-05-18 06:33:31,0.04,0.19,0.00,20.88,23.64,26.74,9.62,41.25,1013.72,2054.99,3470.06,3296.60,3567.29,499.90,498.79,7.27,0000 0000 0000 0000 000000
2014-05-18 06:38:33,0.01,0.19,0.00,21.01,23.70,26.85,9.62,41.23,1013.82,2054.79,3469.29,3295.95,3566.35,500.03,498.71,7.31,0000 0000 0000 0000 000000
2014-05-18 06:43:34,-0.01,0.19,0.00,21.12,23.76,26.93,9.60,41.03,1013.99,2054.09,3468.36,3295.09,3565.50,499.81,498.49,7.35,0000 0000 0000 0000 000000
2014-05-18 06:48:35,0.05,0.19,0.00,21.23,23.83,26.99,9.59,41.08,1014.12,2054.00,3467.46,3294.22,3564.56,499.73,498.27,7.39,0000 0000 0000 0000 000000
2014-05-18 06:53:37,0.05,0.19,0.00,21.36,23.90,27.02,9.58,41.05,1014.18,2053.98,3466.47,3293.45,3563.61,500.09,498.56,7.43,0000 0000 0000 0000 000000
2014-05-18 06:58:37,-0.01,0.19,0.00,21.53,23.97,27.04,9.59,41.04,1014.20,2053.53,3465.67,3292.64,3562.58,499.80,497.77,7.48,0000 0000 0000 0000 000000
2014-05-18 07:03:39,0.01,0.19,0.00,21.70,24.04,27.02,9.54,40.92,1014.36,2053.03,3464.75,3291.89,3561.55,499.77,497.68,7.52,0000 0000 0000 0000 000000
2014-05-18 07:08:40,0.06,0.19,0.00,21.71,24.12,27.08,9.62,41.00,1014.52,2052.99,3463.71,3290.93,3560.56,499.86,497.70,7.56,0000 0000 0000 0000 000000
2014-05-18 07:13:41,0.03,0.20,0.00,21.74,24.20,27.20,9.54,41.08,1014.59,2052.81,3462.72,3290.02,3559.42,500.23,497.99,7.60,0000 0000 0000 0000 000000
2014-05-18 07:18:43,-0.01,0.20,0.00,21.84,24.27,27.33,9.62,41.02,1014.66,2052.17,3461.81,3289.11,3558.43,500.02,497.78,7.64,0000 0000 0000 0000 000000
2014-05-18 07:23:44,0.06,0.20,0.00,21.93,24.35,27.47,9.57,41.04,1014.77,2052.00,3460.71,3288.15,3557.28,500.00,497.51,7.69,0000 0000 0000 0000 000000
2014-05-18 07:28:45,0.04,0.20,0.00,21.99,24.42,27.55,9.66,41.22,1014.99,2051.92,3459.76,3287.39,3556.38,500.44,497.96,7.73,0000 0000 0000 0000 000000
2014-05-18 07:33:46,-0.03,0.20,0.00,22.05,24.50,27.68,9.58,40.86,1015.07,2051.15,3458.82,3286.44,3555.37,500.13,497.80,7.77,0000 0000 0000 0000 000000
2014-05-18 07:38:47,0.04,0.20,0.00,22.13,24.57,27.74,9.57,40.77,1015.15,2051.00,3457.91,3285.76,3554.48,500.21,497.67,7.81,0000 0000 0000 0000 000000
2014-05-18 07:43:49,0.04,0.20,0.00,22.22,24.64,27.80,9.60,40.77,1015.17,2050.95,3456.98,3284.90,3553.42,500.14,497.46,7.85,0000 0000 0000 0000 000000
2014-05-18 07:48:50,-0.02,0.20,0.00,22.29,24.72,27.86,9.56,40.79,1015.39,2050.33,3456.06,3284.02,3552.52,500.28,497.61,7.90,0000 0000 0000 0000 000000
2014-05-18 07:53:51,0.05,0.20,0.00,22.38,24.79,27.90,9.59,40.80,1015.62,2050.01,3455.10,3283.12,3551.55,499.83,497.06,7.94,0000 0000 0000 0000 000000
2014-05-18 07:58:52,0.06,0.21,0.00,22.42,24.87,28.02,9.54,40.74,1015.64,2049.98,3454.13,3282.27,3550.50,499.89,497.10,7.98,0000 0000 0000 0000 000000
2014-05-18 08:03:53,-0.01,0.21,0.00,22.48,24.94,28.12,9.64,40.90,1015.64,2049.50,3453.32,3281.45,3549.56,500.20,497.20,8.02,0000 0000 0000 0000 000000
2014-05-18 08:08:54,0.03,0.21,0.00,22.55,25.01,28.20,9.54,40.82,1015.70,2049.02,3452.31,3280.68,3548.61,499.95,497.03,8.06,0000 0000 0000 0000 000000
2014-05-18 08:13:55,0.04,0.21,0.00,22.61,25.08,28.30,9.52,40.69,1015.88,2049.00,3451.47,3279.91,3547.74,499.86,496.97,8.10,0000 0000 0000 0000 000000
2014-05-18 08:18:56,0.03,0.21,0.00,22.68,25.15,28.38,9.58,40.48,1016.12,2048.86,3450.46,3279.05,3546.75,499.93,496.93,8.15,0000 0000 0000 0000 000000
2014-05-18 08:23:58,-0.02,0.21,0.00,22.75,25.23,28.42,9.55,40.64,1016.13,2048.10,3449.68,3278.18,3545.79,500.04,496.87,8.19,0000 0000 0000 0000 000000
2014-05-18 08:28:59,0.04,0.21,0.00,22.81,25.30,28.50,9.49,40.67,1016.13,2047.99,3448.82,3277.48,3544.92,499.55,496.30,8.23,0000 0000 0000 0000 000000
2014-05-18 08:34:00,0.00,0.21,0.00,22.86,25.37,28.58,9.64,40.63,1016.15,2047.65,3447.98,3276.70,3544.00,500.12,496.92,8.27,0000 0000 0000 0000 000000
2014-05-18 08:39:01,-0.01,0.21,0.00,22.92,25.44,28.64,9.54,40.61,1016.24,2047.08,3447.08,3275.88,3543.08,499.96,496.63,8.31,0000 0000 0000 0000 000000
2014-05-18 08:44:03,0.05,0.21,0.00,22.80,25.51,28.76,9.56,40.48,1016.47,2047.00,3446.09,3275.05,3542.10,499.76,496.76,8.36,0000 0000 0000 0000 000000
2014-05-18 08:49:04,0.06,0.22,0.00,22.61,25.57,28.89,9.63,40.49,1016.50,2047.00,3445.25,3274.23,3541.22,500.53,497.76,8.40,0000 0000 0000 0000 000000
2014-05-18 08:54:05,0.05,0.22,0.00,22.45,25.62,28.85,9.58,40.63,1016.62,2046.97,3444.21,3273.58,3540.42,500.20,497.85,8.44,0000 0000 0000 0000 000000
2014-05-18 08:59:06,0.00,0.22,0.00,22.33,25.66,28.90,9.54,40.52,1016.62,2046.82,3443.67,3273.01,3539.91,500.15,497.94,8.48,0000 0000 0000 0000 000000
2014-05-18 09:04:07,-0.02,0.22,0.00,22.25,25.71,28.93,9.51,40.42,1016.62,2046.19,3442.92,3272.27,3539.08,499.90,497.99,8.52,0000 0000 0000 0000 000000
2014-05-18 09:09:08,0.02,0.22,0.00,22.15,25.73,28.97,9.58,40.47,1016.62,2046.03,3442.14,3272.00,3538.57,499.91,498.03,8.56,0000 0000 0000 0000 000000
2014-05-18 09:14:09,0.03,0.22,0.00,22.10,25.76,28.91,9.69,40.58,1016.62,2046.00,3441.80,3271.53,3538.01,500.28,498.59,8.61,0000 0000 0000 0000 000000
2014-05-18 09:19:10,0.03,0.22,0.00,21.98,25.78,28.79,9.66,40.64,1016.61,2046.00,3441.06,3271.01,3537.35,500.30,498.61,8.65,0000 0000 0000 0000 000000
2014-05-18 09:24:11,0.04,0.22,0.00,21.92,25.80,28.75,9.78,40.73,1016.61,2046.00,3440.33,3270.45,3536.93,500.51,498.99,8.69,0000 0000 0000 0000 000000
2014-05-18 09:29:13,0.02,0.22,0.00,21.93,25.82,28.76,9.68,40.77,1016.62,2045.99,3439.92,3270.01,3536.14,500.15,498.62,8.73,0000 0000 0000 0000 000000
2014-05-18 09:34:13,0.03,0.23,0.00,21.91,25.82,28.80,9.70,41.04,1016.58,2045.98,3439.12,3269.65,3535.90,500.15,498.61,8.77,0000 0000 0000 0000 000000
2014-05-18 09:39:14,0.02,0.23,0.00,21.88,25.83,28.72,9.70,41.03,1016.48,2045.96,3438.82,3269.04,3535.11,500.13,498.50,8.81,0000 0000 0000 0000 000000
2014-05-18 09:44:15,0.01,0.23,0.00,21.92,25.85,28.73,9.70,40.93,1016.59,2045.94,3438.11,3268.99,3534.98,500.42,499.19,8.86,0000 0000 0000 0000 000000
2014-05-18 09:49:17,0.02,0.23,0.00,21.98,25.85,28.77,9.71,40.94,1016.62,2045.80,3437.90,3268.41,3534.22,499.95,498.42,8.90,0000 0000 0000 0000 000000
2014-05-18 09:54:18,-0.00,0.23,0.00,22.04,25.87,28.83,9.65,40.68,1016.63,2045.48,3437.13,3268.01,3533.99,500.27,498.59,8.94,0000 0000 0000 0000 000000
2014-05-18 09:59:19,-0.00,0.23,0.00,22.10,25.87,28.81,9.69,40.83,1016.62,2045.16,3436.66,3267.68,3533.24,500.40,498.52,8.98,0000 0000 0000 0000 000000
2014-05-18 10:04:20,0.02,0.23,0.00,22.13,25.89,28.79,9.57,40.78,1016.64,2045.06,3436.01,3267.03,3532.93,499.77,497.96,9.02,0000 0000 0000 0000 000000
2014-05-18 10:09:21,0.04,0.23,0.00,22.16,25.91,28.73,9.63,40.66,1016.68,2045.05,3435.19,3266.75,3532.13,500.26,498.27,9.07,0000 0000 0000 0000 000000
2014-05-18 10:14:22,0.03,0.23,0.00,22.20,25.92,28.81,9.59,40.58,1016.88,2045.03,3434.59,3266.05,3531.73,499.94,498.19,9.11,0000 0000 0000 0000 000000
2014-05-18 10:19:23,0.02,0.23,0.00,22.21,25.94,28.89,9.63,40.70,1017.09,2045.01,3434.01,3265.76,3531.04,500.07,498.44,9.15,0000 0000 0000 0000 000000
2014-05-18 10:24:25,0.05,0.24,0.00,22.25,25.96,28.94,9.67,40.61,1017.10,2045.00,3433.29,3265.04,3530.29,500.29,498.52,9.19,0000 0000 0000 0000 000000
2014-05-18 10:29:26,0.03,0.24,0.00,22.31,25.97,29.15,9.68,40.91,1017.10,2045.00,3432.89,3264.63,3529.75,499.94,498.12,9.23,0000 0000 0000 0000 000000
2014-05-18 10:34:27,0.03,0.24,0.00,22.37,26.00,29.21,9.55,40.92,1017.10,2045.00,3432.10,3264.02,3529.03,499.74,497.78,9.28,0000 0000 0000 0000 000000
2014-05-18 10:39:28,0.03,0.24,0.00,22.45,26.02,28.87,9.50,40.84,1017.13,2044.98,3431.83,3263.72,3528.50,499.65,497.54,9.32,0000 0000 0000 0000 000000
2014-05-18 10:44:29,0.02,0.24,0.00,22.48,26.05,28.66,9.64,40.88,1017.45,2044.92,3431.07,3263.04,3527.87,500.05,497.99,9.36,0000 0000 0000 0000 000000
2014-05-18 10:49:31,0.00,0.24,0.00,22.52,26.09,28.71,9.60,40.73,1017.59,2044.57,3430.26,3262.67,3527.07,499.82,497.87,9.40,0000 0000 0000 0000 000000
2014-05-18 10:54:32,-0.00,0.24,0.00,22.56,26.12,28.81,9.59,40.39,1017.60,2044.09,3429.69,3262.01,3526.26,500.06,497.80,9.44,0000 0000 0000 0000 000000
2014-05-18 10:59:33,0.04,0.24,0.00,22.61,26.17,28.91,9.65,40.48,1017.64,2044.01,3429.02,3261.37,3525.72,500.17,498.08,9.48,0000 0000 0000 0000 000000
2014-05-18 11:04:34,0.03,0.24,0.00,22.67,26.22,29.12,9.55,40.32,1017.91,2044.00,3428.22,3260.88,3524.95,499.78,497.83,9.53,0000 0000 0000 0000 000000
2014-05-18 11:09:36,0.05,0.25,0.00,22.72,26.26,29.24,9.63,40.29,1018.07,2044.00,3427.71,3260.08,3524.12,500.00,497.87,9.57,0000 0000 0000 0000 000000
2014-05-18 11:14:37,0.05,0.25,0.00,22.74,26.31,29.30,9.57,40.33,1018.08,2043.95,3426.87,3259.47,3523.31,500.10,497.99,9.61,0000 0000 0000 0000 000000
2014-05-18 11:19:38,-0.04,0.25,0.00,22.68,26.36,29.36,9.63,40.31,1018.09,2043.44,3426.02,3258.87,3522.59,500.19,498.11,9.65,0000 0000 0000 0000 000000
2014-05-18 11:24:39,0.02,0.25,0.00,22.50,26.40,29.67,9.70,40.40,1018.13,2043.04,3425.14,3258.05,3521.85,500.16,498.31,9.69,0000 0000 0000 0000 000000
2014-05-18 11:29:40,0.05,0.25,0.00,22.32,26.43,29.83,9.63,40.41,1018.29,2043.00,3424.52,3257.55,3521.04,499.66,498.40,9.74,0000 0000 0000 0000 000000
2014-05-18 11:34:42,0.02,0.25,0.00,22.19,26.46,29.60,9.67,40.40,1018.40,2043.00,3423.98,3257.01,3520.47,499.84,498.90,9.78,0000 0000 0000 0000 000000
2014-05-18 11:39:43,0.03,0.25,0.00,21.97,26.47,29.42,9.60,40.37,1018.44,2043.00,3423.16,3256.61,3520.01,500.14,499.63,9.82,0000 0000 0000 0000 000000
2014-05-18 11:44:44,0.04,0.25,0.00,21.69,26.46,29.14,9.62,40.39,1018.26,2043.00,3422.59,3256.04,3519.48,499.81,499.57,9.86,0000 0000 0000 0000 000000
2014-05-18 11:49:45,0.00,0.25,0.00,21.47,26.45,28.91,9.71,40.70,1018.24,2043.00,3422.00,3255.96,3519.01,500.09,500.31,9.90,0000 0000 0000 0000 000000
2014-05-18 11:54:46,0.03,0.26,0.00,21.29,26.42,28.70,9.64,40.65,1018.28,2042.99,3421.44,3255.48,3518.89,499.79,500.26,9.94,0000 0000 0000 0000 000000
2014-05-18 11:59:47,0.02,0.26,0.00,21.11,26.38,28.53,9.68,40.63,1018.39,2042.99,3421.01,3255.04,3518.14,500.24,501.01,9.99,0000 0000 0000 0000 000000
2014-05-18 12:04:48,0.00,0.26,0.00,20.97,26.34,28.33,9.67,40.58,1018.48,2042.99,3420.92,3255.00,3518.00,499.67,500.68,10.03,0000 0000 0000 0000 000000
2014-05-18 12:09:49,0.01,0.26,0.00,20.86,26.28,28.20,9.79,40.59,1018.51,2043.01,3420.17,3255.00,3518.00,500.19,501.41,10.07,0000 0000 0000 0000 000000
2014-05-18 12:14:50,0.03,0.26,0.00,20.78,26.23,27.98,9.73,40.69,1018.56,2043.22,3420.00,3254.99,3517.98,499.95,501.55,10.11,0000 0000 0000 0000 000000
2014-05-18 12:19:52,0.06,0.26,0.00,20.71,26.16,27.78,9.83,40.65,1018.57,2043.75,3419.97,3254.98,3517.97,500.68,502.19,10.15,0000 0000 0000 0000 000000
2014-05-18 12:24:53,0.02,0.26,0.00,20.64,26.09,27.68,9.87,40.67,1018.57,2043.98,3419.66,3254.98,3517.92,500.51,502.16,10.20,0000 0000 0000 0000 000000
2014-05-18 12:29:54,0.00,0.26,0.00,20.57,26.02,27.56,9.69,40.65,1018.57,2043.99,3419.10,3254.98,3517.86,500.09,501.96,10.24,0000 0000 0000 0000 000000
2014-05-18 12:34:56,0.00,0.26,0.00,20.50,25.94,27.45,9.66,40.67,1018.57,2044.02,3419.01,3254.98,3517.83,500.22,501.87,10.28,0000 0000 0000 0000 000000
2014-05-18 12:39:57,0.08,0.27,0.00,20.42,25.87,27.39,9.77,40.71,1018.57,2044.54,3419.00,3254.99,3517.87,500.16,502.19,10.32,0000 0000 0000 0000 000000
2014-05-18 12:44:58,0.02,0.27,0.00,20.34,25.79,27.27,9.68,40.62,1018.57,2044.98,3419.00,3255.00,3517.97,499.76,501.92,10.36,0000 0000 0000 0000 000000
2014-05-18 12:49:59,0.00,0.27,0.00,20.27,25.71,27.19,9.64,40.54,1018.57,2045.00,3419.00,3255.02,3517.98,499.91,501.99,10.40,0000 0000 0000 0000 000000
2014-05-18 12:55:00,0.03,0.27,0.00,20.18,25.63,27.11,9.78,40.52,1018.57,2045.22,3418.99,3255.15,3517.99,499.85,502.36,10.45,0000 0000 0000 0000 000000
2014-05-18 13:00:01,0.05,0.27,0.00,20.10,25.56,27.06,9.73,40.71,1018.57,2045.88,3418.98,3255.52,3517.99,500.11,502.52,10.49,0000 0000 0000 0000 000000
2014-05-18 13:05:02,-0.00,0.27,0.00,20.03,25.48,26.97,9.84,40.77,1018.57,2045.99,3418.99,3255.93,3518.00,500.25,502.92,10.53,0000 0000 0000 0000 000000